User: anonymous   Login
Location: Churchill
(58.7670°N, 94.1670°W)
Time: 03:56:47
(UTC-05:00)
Language:

Cosmos 2142 Rocket - Orbit

View from above orbital plane
View from above orbital plane
View from above satellite
View from above satellite

Ground track
Ground track

The orbit data is extracted from the following two-line orbital elements,

1 21231U 91029B   18111.92636257 +.00000031 +00000-0 +15952-4 0  9992
2 21231 082.9529 239.9547 0036799 087.8387 019.0904 13.75768145355979
Epoch (UTC): 21 April 2018 22:13:57
Eccentricity: 0.0036799
inclination: 82.9529°
perigee height: 952 km
apogee height: 1006 km
right ascension of ascending node: 239.9547°
argument of perigee: 87.8387°
revolutions per day: 13.75768145
mean anomaly at epoch: 19.0904°
orbit number at epoch: 35597

The dashed part of the orbit path shows where the satellite is in the earth's shadow,  

DLR